Tracking 19246 objects as of 19-Aug-2018
HD Live streaming from Space Station
objects crossing your sky now

DICE 1

Track DICE 1 now!
10-day predictions
DICE 1 is classified as:


NORAD ID: 37851
Int'l Code: 2011-061B
Perigee: 438.0 km
Apogee: 694.3 km
Inclination: 101.7 °
Period: 95.8 minutes
Semi major axis: 6937 km
RCS: 0.0809 m2 (small)
Launch date: October 28, 2011
Source: United States (US)
Launch site: AIR FORCE WESTERN TEST RANGE (AFWTR)
aabbcc
Your satellite tracking list
Your tracking list is empty




NASA's NSSDC Master Catalog

Two Line Element Set (TLE):
1 37851U 11061B   18231.80631993  .00000843  00000-0  52478-4 0  9992
2 37851 101.7337 321.5975 0184738 272.7262  85.2817 15.02556228370882
Source of the keplerian elements: AFSPC